^^
Datos históricos de la estación: Murcia-Puente Tocinos
 
Diario Informe para Enero 23, 2022 Unidades:  Métrico    Ingés   Ambas
Diario Semanal Mensual Anual
  Actual: Máxima: Mínima: Promedio:
Temperatura: 8.9 °C 9.4 °C 8.9 °C 9.1 °C
Punto de rocio: 8.3 °C 8.8 °C 8.3 °C 8.5 °C
Humedad: 96% 96% 96% 96%
Velocidad viento: 2.3km/h 6.9km/h 0km/h 3.3km/h
Racha viento: 3.9km/h 11.1km/h - -
VientoSSO - - SSO
Presión: 1026.3 hPa 1028.0 hPa 1026.3 hPa -
Precipitación: 0.0 mm      
 
 
Tabla de datos para Enero 23, 2022
Hora Temperatura Punto de rocio Presión Viento Velocidad viento Racha viento Humedad Intensidad lluvia(por hora) Nubes
00:04 9.4 °C 8.8 °C 1028.0 hPa NE 6.9 km/h 11.1 km/h 96% 0.0 mm
00:09 9.4 °C 8.8 °C 1028.0 hPa NE 6.8 km/h 8.7 km/h 96% 0.0 mm
00:14 9.3 °C 8.8 °C 1027.8 hPa ENE 5.8 km/h 9.3 km/h 96% 0.0 mm
00:19 9.3 °C 8.7 °C 1027.8 hPa ENE 5.7 km/h 9.3 km/h 96% 0.0 mm
00:24 9.3 °C 8.7 °C 1027.8 hPa Este 5 km/h 7.4 km/h 96% 0.0 mm
00:29 9.3 °C 8.7 °C 1027.7 hPa ENE 4.8 km/h 7.4 km/h 96% 0.0 mm
00:34 9.3 °C 8.7 °C 1027.7 hPa ENE 3.9 km/h 7.6 km/h 96% 0.0 mm
00:39 9.3 °C 8.7 °C 1027.7 hPa NE 3.8 km/h 5.8 km/h 96% 0.0 mm
00:44 9.3 °C 8.7 °C 1027.7 hPa NE 3.2 km/h 3.9 km/h 96% 0.0 mm
00:49 9.3 °C 8.7 °C 1027.7 hPa NE 3.1 km/h 3.9 km/h 96% 0.0 mm
00:54 9.3 °C 8.7 °C 1027.7 hPa North 2.3 km/h 7.4 km/h 96% 0.0 mm
00:59 9.3 °C 8.7 °C 1027.6 hPa NO 2.6 km/h 7.4 km/h 96% 0.0 mm
01:04 9.3 °C 8.7 °C 1027.6 hPa NO 3.9 km/h 5.8 km/h 96% 0.0 mm
01:09 9.3 °C 8.7 °C 1027.6 hPa ONO 3.9 km/h 7.4 km/h 96% 0.0 mm
01:14 9.2 °C 8.6 °C 1027.5 hPa ONO 3.9 km/h 7.4 km/h 96% 0.0 mm
01:19 9.2 °C 8.6 °C 1027.5 hPa ONO 3.9 km/h 5.8 km/h 96% 0.0 mm
01:24 9.2 °C 8.6 °C 1027.5 hPa ONO 3.9 km/h 5.6 km/h 96% 0.0 mm
01:29 9.2 °C 8.6 °C 1027.4 hPa ONO 3.6 km/h 3.7 km/h 96% 0.0 mm
01:34 9.2 °C 8.6 °C 1027.4 hPa ONO 2.3 km/h 5.8 km/h 96% 0.0 mm
01:39 9.2 °C 8.6 °C 1027.4 hPa ONO 2.3 km/h 5.6 km/h 96% 0.0 mm
01:44 9.2 °C 8.6 °C 1027.3 hPa NNO 2.9 km/h 9.5 km/h 96% 0.0 mm
01:49 9.1 °C 8.5 °C 1027.3 hPa NNE 3.2 km/h 9.5 km/h 96% 0.0 mm
01:54 9.1 °C 8.5 °C 1027.3 hPa NNE 5 km/h 9.3 km/h 96% 0.0 mm
01:59 9.1 °C 8.5 °C 1027.1 hPa NNE 5.1 km/h 8.4 km/h 96% 0.0 mm
02:04 9.1 °C 8.5 °C 1027.1 hPa NNE 5.8 km/h 8.4 km/h 96% 0.0 mm
02:09 9.1 °C 8.5 °C 1027.1 hPa North 5.7 km/h 8.4 km/h 96% 0.0 mm
02:14 9.1 °C 8.5 °C 1027.1 hPa North 5 km/h 5.6 km/h 96% 0.0 mm
02:19 9.1 °C 8.5 °C 1027.1 hPa North 4.6 km/h 4.7 km/h 96% 0.0 mm
02:24 9 °C 8.4 °C 1027.1 hPa North 2.3 km/h 4.7 km/h 96% 0.0 mm
02:29 9 °C 8.4 °C 1027.0 hPa NO 2.4 km/h 6.4 km/h 96% 0.0 mm
02:34 9 °C 8.4 °C 1027.0 hPa ONO 3.2 km/h 7.4 km/h 96% 0.0 mm
02:39 9 °C 8.4 °C 1027.0 hPa ONO 3.2 km/h 5.6 km/h 96% 0.0 mm
02:44 9 °C 8.4 °C 1026.9 hPa ONO 3.2 km/h 5.8 km/h 96% 0.0 mm
02:49 9 °C 8.4 °C 1026.9 hPa ONO 3.2 km/h 4.7 km/h 96% 0.0 mm
02:54 9 °C 8.4 °C 1026.9 hPa ONO 3.2 km/h 5.6 km/h 96% 0.0 mm
02:59 9 °C 8.4 °C 1026.9 hPa ONO 3.2 km/h 6.9 km/h 96% 0.0 mm
03:04 9 °C 8.4 °C 1026.9 hPa ONO 3.2 km/h 7.4 km/h 96% 0.0 mm
03:09 9 °C 8.4 °C 1026.9 hPa ONO 3.4 km/h 7.4 km/h 96% 0.0 mm
03:14 9 °C 8.4 °C 1026.9 hPa ONO 4.7 km/h 7.4 km/h 96% 0.0 mm
03:19 9.1 °C 8.5 °C 1026.9 hPa ONO 4.7 km/h 7.4 km/h 96% 0.0 mm
03:24 9.1 °C 8.5 °C 1026.9 hPa ONO 4.7 km/h 5.6 km/h 96% 0.0 mm
03:29 9.1 °C 8.5 °C 1026.8 hPa ONO 4.4 km/h 5.8 km/h 96% 0.0 mm
03:34 9.1 °C 8.5 °C 1026.8 hPa ONO 3.2 km/h 5.8 km/h 96% 0.0 mm
03:39 9.1 °C 8.5 °C 1026.8 hPa ONO 3.2 km/h 5.8 km/h 96% 0.0 mm
03:44 9.1 °C 8.5 °C 1026.7 hPa ONO 2.9 km/h 5.8 km/h 96% 0.0 mm
03:49 9.1 °C 8.5 °C 1026.7 hPa ONO 2.8 km/h 3.7 km/h 96% 0.0 mm
03:54 9.1 °C 8.5 °C 1026.7 hPa ONO 2.3 km/h   96% 0.0 mm
03:59 9.1 °C 8.5 °C 1026.6 hPa ONO 2.3 km/h 5.6 km/h 96% 0.0 mm
04:04 9 °C 8.4 °C 1026.6 hPa SO 2.3 km/h 7.4 km/h 96% 0.0 mm
04:09 9 °C 8.4 °C 1026.6 hPa SSO 2.5 km/h 7.4 km/h 96% 0.0 mm
04:14 8.9 °C 8.3 °C 1026.6 hPa SSO 3.9 km/h 4.7 km/h 96% 0.0 mm
04:19 8.9 °C 8.3 °C 1026.6 hPa SSO 3.6 km/h 5.6 km/h 96% 0.0 mm
04:24 8.9 °C 8.3 °C 1026.6 hPa SSO 2.3 km/h 3.7 km/h 96% 0.0 mm
04:29 8.9 °C 8.3 °C 1026.4 hPa SSO 1.9 km/h   96% 0.0 mm
04:34 8.9 °C 8.3 °C 1026.4 hPa Calm   3.7 km/h 96% 0.0 mm
04:39 8.9 °C 8.3 °C 1026.4 hPa Calm   3.9 km/h 96% 0.0 mm
04:44 8.9 °C 8.3 °C 1026.4 hPa Calm   4.7 km/h 96% 0.0 mm
04:49 8.9 °C 8.3 °C 1026.4 hPa SSO 0.4 km/h 4.7 km/h 96% 0.0 mm
04:54 8.9 °C 8.3 °C 1026.4 hPa SSO 2.9 km/h   96% 0.0 mm
04:59 8.9 °C 8.3 °C 1026.3 hPa SSO 2.3 km/h   96% 0.0 mm
05:04 9 °C 8.4 °C 1026.3 hPa Calm   4.7 km/h 96% 0.0 mm
05:09 8.9 °C 8.3 °C 1026.3 hPa SSO 0.3 km/h 3.9 km/h 96% 0.0 mm
05:14 8.9 °C 8.3 °C 1026.3 hPa SSO 2.3 km/h 4.7 km/h 96% 0.0 mm
05:19 8.9 °C 8.3 °C 1026.3 hPa SSO 2.3 km/h 3.9 km/h 96% 0.0 mm
Murcia-Puente Tocinos, Espa?a
Compliments of Weather Underground - 1.75 mb

La estación de MeteoMurcia.com, publica sus datos en los siguientes proyectos:

Weather Underground PWS IMURCIAP2 Meteoclimatic www.awekas.at

W3Counter
Web Analytics